Terminal Aerodrome Forecast
Issued by NWS Chicago, IL

Home | Current Version | Previous Version | Text Only | Print | Product List | Glossary On
Versions: 1 2 3 4 5 6 7 8 9 10 11 12 13 14 15 16 17 18 19 20 21 22 23 24 25
252
FTUS43 KLOT 140537
TAFRFD
TAF
KRFD 140537Z 1406/1506 10005KT P6SM OVC200
     FM141200 14010KT P6SM OVC060
     FM141500 14014KT 1 1/2SM -SN OVC015
      TEMPO 1415/1418 3/4SM -SN BR
     FM141900 14014G18KT 4SM -SN BR OVC020
      TEMPO 1421/1424 1SM -SN BR OVC015=

USA.gov is the U.S. government's official web portal to all federal, state and local government web resources and services.